Regional Weather Roundup
Issued by NWS Pendleton, OR

Home | Current Version | Previous Version | Text Only | Print | Product List | Glossary On
Versions: 1 2 3 4 5 6 7 8 9 10 11 12 13 14 15 16 17 18 19 20 21 22 23 24 25 26 27 28 29 30 31 32 33 34 35 36 37 38 39 40 41 42 43 44 45 46 47 48 49 50
000
ASUS46 KPDT 231125
RWRPDT
PENDLETON REGIONAL WEATHER ROUNDUP
NATIONAL WEATHER SERVICE PENDLETON OREGON
300 AM PST FRI FEB 23 2018

NOTE: FAIR INDICATES FEW OR NO CLOUDS BELOW 12,000 FEET WITH NO
SIGNIFICANT WEATHER AND/OR OBSTRUCTIONS TO VISIBILITY.

# INDICATES UNOFFICIAL STATION AND DATA

WAZ520-231210-
EAST SLOPES OF WASHINGTON CASCADES

CITY            SKY/WX      TMP DP  RH  WIND    PRES   REMARKS
#BULLFROG       N/A          9   6  87  CALM    N/A
#CLE ELUM HS    N/A         10   5  80  CALM    30.28R
#EASTON DOT     N/A         10   7  87  CALM    N/A
#ELK HTS DOT    N/A         12  12  100 W1      N/A
#GLENWOOD       N/A          3   0  87  CALM    30.52R
#NELSON 3SW     N/A         10   8  91  CALM    30.70S
#NILE           N/A         10   7  87  CALM    29.67S
#TEANAWAY 4NE   N/A          8   3  79  CALM    N/A
#TROUT LAKE 1NE N/A          9   7  91  CALM    30.52R
#TROUT LAKE 1E  N/A          5   3  91  CALM    30.40S
$$

WAZ521-231210-
SIMCOE HIGHLANDS

CITY            SKY/WX      TMP DP  RH  WIND    PRES   REMARKS
#BICKLETON HS   N/A          8   0  69  W6      29.89S
#SATUS PASS DOT N/A          7   4  87  NE9     N/A
#CENTERVILLE 1SWN/A          4   0  83  CALM    30.51R
#GOLDENDALE 1NE N/A          4  -11 49  N5      N/A
#GOLDENDALE 4W  N/A          4  -10 51  CALM    30.42S
#GOODNOE HILLS  N/A         16   8  70  S3      30.31S
#LYLE 6NE       N/A         15  13  92  CALM    30.51S
#PITT 4SE       N/A         16  14  92  CALM    30.53S
$$

WAZ026-231210-
KITTITAS VALLEY

CITY            SKY/WX      TMP DP  RH  WIND    PRES   REMARKS
ELLENSBURG AP   PTCLDY      16   9  73  CALM    30.35S
#ELLENSBURG CWU N/A         15   9  77  CALM    30.40S
#ELLENSBURG 3NE N/A         15   8  73  CALM    28.42S
#ELLENSBURG 1E  N/A         12   7  80  CALM    30.52R
#KITTITAS 3S    N/A          9   5  83  CALM    30.47R
#MANASTASH RDG  N/A         18  17  96  W6      N/A
#ROCKY CYN DOT  N/A         12  10  91  NW2     N/A
#RYEGRASS DOT   N/A         14   5  67  CALM    N/A
$$

WAZ027-231210-
YAKIMA VALLEY

CITY            SKY/WX      TMP DP  RH  WIND    PRES   REMARKS
SUNNYSIDE AP    CLEAR       12   7  80  N6      30.44S
YAKIMA AIRPORT  CLEAR       14   9  80  NW6     30.42S
YAKIMA-VAGABOND CLEAR       12   7  80  CALM    30.37S
#DONALD 2NE     N/A         18  -3  38  NE2     29.25R
#GRANDVIEW      N/A         14   7  73  CALM    30.50S
#MABTON         N/A         17  12  80  CALM    30.45R
#MOXEE 2E       N/A         35  N/A N/A E3      29.93S
#NACHES 2SW     N/A         20  13  74  W7      30.34R
#PARKER DOT     N/A         20  14  77  CALM    30.41S
#TERRACE HTS    N/A         13   8  80  CALM    30.45S
#TOPPENISH      N/A         19  14  80  CALM    30.40S
#I82 S UMTANUM RN/A         13   4  67  NE5     N/A
#UNION GAP DOT  N/A         15  11  84  VRB2    30.46S
#W YAKIMA       N/A         17  11  77  CALM    30.48S
#WHITE SWAN 5E  N/A         10   6  83  CALM    30.50S
#WILEY CITY 3W  N/A         15   5  64  CALM    30.35S
#ZILLAH DOT     N/A         17  13  84  E1      N/A
$$

WAZ028-231210-
LOWER COLUMBIA BASIN...WASHINGTON

CITY            SKY/WX      TMP DP  RH  WIND    PRES   REMARKS
PASCO           CLEAR       14  10  84  CALM    30.47R
PROSSER AWOS    N/A         14  12  92  CALM    30.48S
RICHLAND AWOS   CLEAR       20  13  74  SW3     30.46R
#BENTON CITY    N/A         18  12  77  CALM    30.39R
#CONNELL 5N     N/A         17  12  80  W2      30.47R
#CONNELL 5NW    N/A         16  11  80  CALM    30.42R
#ELTOPIA 6NW    N/A         21  11  65  CALM    29.37R
#KAHLOTUS       N/A         19  14  80  W6      30.46R
#KENNEWICK 3S   N/A         19  14  80  S2      30.49R
#PATERSON       N/A         18  14  84  NW1     30.49R
#PROSSER DOT    N/A         17  12  80  CALM    30.46R
#SAGEMOOR 2W    N/A         19  10  67  SW1     30.35R
#TOUCHET 2S     N/A         23  16  74  CALM    30.47R
#WEST PASCO     N/A         15   9  77  CALM    30.48R
$$

WAZ029-231210-
FOOTHILLS OF THE BLUES...WASHINGTON

CITY            SKY/WX      TMP DP  RH  WIND    PRES   REMARKS
WALLA WALLA AP  PTCLDY      23  16  74  S12     30.40R WCI 11
#CLYDE 6NW      N/A         20  16  84  S9      30.45R
#DELANEY DOT    N/A         24  17  74  S2      30.41R
#LOWDEN 2SE     N/A         20  15  81  CALM    30.42S
#PLEASANT VIEW 1N/A         19  16  88  S7      30.50R
#PRESCOTT       N/A         23  18  81  CALM    30.45R
#WHITMAN COLLEGEN/A         22  16  77  SE2     30.54R
#WAITSBURG 6SSE N/A         21  14  74  SE3     30.30R
#WALLA WALLA 5E N/A         21  17  84  SW7     N/A
#WHITMAN MISSIONN/A         22  16  77  CALM    30.50R
$$

WAZ030-231210-
BLUE MOUNTAINS...WASHINGTON

CITY            SKY/WX      TMP DP  RH  WIND    PRES   REMARKS
#DIXIE 5SE      N/A         18  15  88  SW6     30.19R
$$

ORZ009-041-WAZ024-231210-
COLUMBIA RIVER GORGE

CITY            SKY/WX      TMP DP  RH  WIND    PRES   REMARKS
HOOD RIVER AP   CLEAR       18  14  84  CALM    30.50R
THE DALLES AP   CLEAR       18  11  74  E6      30.51S
#ARLINGTON AIRPON/A         18  14  84  SW7     30.51S
#ARLINGTON HS   N/A         17  10  73  N3      30.42R
#CELILO DOT     N/A         21  10  62  S3      N/A
#LYLE           N/A         19  14  80  NE9     30.54R
#MARYHILL       N/A         18  14  84  N7      N/A
#MURDOCK        N/A         18  15  88  CALM    30.50R
#RUFUS DOT      N/A         19  N/A N/A S8      N/A
#SMITHVILLE     N/A         16  14  92  CALM    30.49R

$$

ORZ510-231210-
NORTH CENTRAL OREGON

CITY            SKY/WX      TMP DP  RH  WIND    PRES   REMARKS
#ANTELOPE       N/A          2  -2  83  N2      30.42S
#CHENOWITH 1W   N/A         15  14  96  W7      N/A
#COW CYN RST AREN/A          9   6  87  E2      N/A
#DUFUR          N/A          4   1  87  W1      30.49S
#DUFUR 9E       N/A         19  13  77  W2      30.56R
#GRASS VALLEY 1SN/A          7   4  87  CALM    30.34R
#KENT DOT       N/A          7   1  76  SW6     N/A
#MAUPIN SCHOOL  N/A         12   7  80  CALM    30.52R
#SHANIKO 5WSW   N/A         11  N/A N/A S2      N/A
#SHANIKO 4NW    N/A         12  10  91  CALM    30.24S
#TYGH VALLEY 2NEN/A         10   6  83  CALM    30.53R
#WAPANITIA AIRPON/A          3   0  87  CALM    30.56R
#WASCO DOT      N/A          6   2  83  CALM    N/A
#WASCO 5NE      N/A         15  11  84  W7      30.51R
$$

ORZ511-231210-
CENTRAL OREGON

CITY            SKY/WX      TMP DP  RH  WIND    PRES   REMARKS
BEND AIRPORT    PTCLDY       5   1  83  SW5     30.31R
PRINEVILLE AP   CLOUDY       5   1  83  CALM    30.32R
REDMOND AIRPORT PTCLDY       2  -3  79  S5      30.31R
#ASHWOOD SCHOOL N/A          2  -1  87  CALM    30.31R
#BEND 1SW       N/A          2  -2  83  N1      N/A
#BEND-AWBREY    N/A          9   6  87  CALM    30.52R
#BEND-KIM LN    N/A          2  -1  87  W3      30.47R
#CULVER         N/A          3   0  87  CALM    30.39R
#CULVER 8W      N/A         -1  -12 58  CALM    30.29R
#LAKE BILLY CHINN/A         10  N/A N/A CALM    30.52R
#POWELL BUTTE   N/A         10   4  76  S1      30.20R
#PRINEVILLE     N/A         14  11  88  CALM    30.61R
#WARM SPRINGS   N/A          5   1  83  CALM    30.37R

$$


ORZ509-231210-
EAST SLOPES OF OREGON CASCADES

CITY            SKY/WX      TMP DP  RH  WIND    PRES   REMARKS
SISTERS AWOS    N/A         -4  -8  82  CALM    30.23S
#BLUE BOX PASS  N/A         10  N/A N/A E2      N/A
#CAMP SHERMAN   N/A         -1  -8  71  CALM    30.63R
#LA PINE DOT    N/A          8   5  87  NW5     N/A
#LA PINE 4NW    N/A         -1  -6  79  CALM    30.54R
#LAVA BUTTE DOT N/A          1  -2  87  SW7     N/A
#SISTERS ODOT   N/A         -5  -9  82  CALM    N/A
#SISTERS 3N     N/A         -3  -12 64  CALM    30.62R
#SUNRIVER       N/A          0  -5  79  CALM    30.53R
#TUMALO 3W      N/A         10   6  83  W6      30.39R
#WANOGA BUTTE D N/A          5   1  83  N2      N/A

$$

ORZ044-231210-
LOWER COLUMBIA BASIN...OREGON

CITY            SKY/WX      TMP DP  RH  WIND    PRES   REMARKS
HERMISTON       CLEAR       13  11  91  CALM    30.45R
#BOARDMAN SCHOOLN/A         19  12  74  S3      30.47S
#BOARDMAN 8SW   N/A         17  11  77  SW9     30.49S
#ECHO 8SW       N/A         21  11  65  CALM    30.47R
#I-84 EX 198 DOTN/A         18  12  77  NE2     N/A
#IONE SCHOOL    N/A         12   1  60  CALM    30.54R
#UMATILLA       N/A         17  10  73  SW1     30.43R
$$

ORZ507-231210-
NORTHERN FOOTHILLS OF THE BLUES

CITY            SKY/WX      TMP DP  RH  WIND    PRES   REMARKS
PENDLETON AIRPT PTCLDY      15   8  73  S7      30.39R
#ADAMS 3WNW     N/A         13   9  84  CALM    30.50R
#ATHENA         N/A         16  12  84  CALM    30.53R
#HELIX SCHOOL   N/A         14  11  88  CALM    30.49S
#HELIX 3N       N/A         15  12  88  S2      30.35R
#HOLDMAN 5SE    N/A         14  10  84  SE3     30.38R
#HOLDMAN 6E     N/A         14  11  88  SE2     30.28R
#M-F GROVE ELEM N/A         20  11  67  CALM    30.38R
#M-FREEWATER 5SEN/A         21  14  74  W1      30.38R
#PENDLETON DNTN N/A         14   4  64  CALM    N/A
#PDT AQUATIC CTRN/A         13   6  73  CALM    30.38S
#PDT SUNRIDGE   N/A         10   7  87  CALM    30.44R
#PENDLETON 6SE  N/A         14  11  88  S6      30.47R
#PENDLETON 7NW  N/A         12   6  76  CALM    N/A
#PILOT ROCK 1S  N/A         14   5  67  CALM    30.37S
#PILOT ROCK     N/A         15   9  77  CALM    30.38R
#TUTUILLA       N/A          8   4  83  CALM    30.45S
#UMAPINE 2E     N/A         23  16  74  SW2     30.41R

$$

ORZ508-231210-
SOUTHERN FOOTHILLS OF THE BLUES

CITY            SKY/WX      TMP DP  RH  WIND    PRES   REMARKS
#AJAX           N/A         14   3  61  CALM    30.47S
#CONDON 5W      N/A         10   7  87  CALM    30.24R
#FOSSIL SCHOOL  N/A          2  -2  83  CALM    30.26R
#HEPPNER EOC    N/A         10   4  76  E6      30.47R
#HEPPNER 4NE    N/A         11   6  80  S1      30.53R
#LEXINGTON 2SE  N/A         12   4  70  SE8     30.37R
#MIKKALO        N/A         16   7  67  S6      30.49R
#OLEX 4N        N/A         14   9  80  S8      30.39S
#RUGGS 5NE      N/A          3  -5  68  CALM    30.46R
#RUGGS 2SW      N/A          7   1  76  SW13    30.56R WCI -9

$$

ORZ502-503-231210-
BLUE MOUNTAINS

CITY            SKY/WX      TMP DP  RH  WIND    PRES   REMARKS
MEACHAM         CLOUDY      12   8  84  CALM    30.22S
#BATTLE MTN DOT N/A          9   7  91  NW8     N/A
#GRANITE        N/A          8  N/A N/A N1      29.77S
#HARDMAN 10S    N/A          4   1  87  CALM    30.66R
#LADD CYN SMT   N/A         14   7  73  NW8     N/A
#LADD CREEK ODOTN/A         17  -12 26  CALM    N/A
#N POWDER DOT   N/A         10   5  80  NE8     N/A
#PIKES PEAK     N/A         14  10  84  S8      27.99S
#SUMMERVILLE 5NWN/A         10   7  87  W2      28.19
#TOLLGATE       N/A          9   7  91  CALM    30.14R
#TROY SCHOOL    N/A         21  12  68  CALM    30.31R
#UKIAH          N/A          7   4  87  CALM    30.44R
#WESTON 4E      N/A         13  11  91  CALM    30.47R
$$

ORZ505-231210-
JOHN DAY BASIN

CITY            SKY/WX      TMP DP  RH  WIND    PRES   REMARKS
JOHN DAY        PTCLDY      10   6  83  CALM    30.25R
#ANTELOPE 9ESE  N/A          9   6  87  CALM    N/A
#DAYVILLE SCHOOLN/A         10   1  66  CALM    30.29R
#MITCHELL 8NW   N/A         10   6  83  CALM    30.58R
#MONUMENT HS    N/A          5  -1  76  CALM    30.33R
#MT. VERNON 5SE N/A          7   3  83  CALM    30.16R
#SPRAY SCHOOL   N/A          5  N/A N/A CALM    N/A
$$

ORZ506-231210-
OCHOCO AND JOHN DAY HIGHLANDS

CITY            SKY/WX      TMP DP  RH  WIND    PRES   REMARKS
#HORSE RIDGE DO N/A         11   7  83  NW5     N/A
#IZEE 6NW       N/A         -1  -4  87  E2      N/A
#KEYES SMT DOT  N/A          0  -6  75  W2      N/A
#PAULINA ODOT   N/A          9   6  87  SW3     N/A
#PRAIRIE CITY   N/A          6  -7  54  CALM    30.40R
#SENECA         N/A          2  N/A N/A CALM    N/A
#SENECA 9NW     N/A         -3  -7  82  CALM    30.45R
$$

ORZ049-231210-
GRANDE RONDE VALLEY

CITY            SKY/WX      TMP DP  RH  WIND    PRES   REMARKS
LA GRANDE       PTCLDY      14   9  80  NW8     30.30R
#COVE SCHOOL    N/A         10   5  80  CALM    30.27R
#COVE 6NW       N/A         14   9  80  W5      30.47S
#ELGIN 3N       N/A          8  -4  57  CALM    30.25R
#ELGIN 1E       N/A         10   5  80  CALM    N/A
#IMBLER SCHOOL  N/A          9   5  83  CALM    30.24R
#ISLAND CITY 4N N/A         23  22  96  CALM    30.50S
#LADD CYN DOT   N/A         18  11  74  N7      N/A
#UNION 1S       N/A         13   8  80  CALM    30.48R
$$

ORZ050-231210-
WALLOWA COUNTY

CITY            SKY/WX      TMP DP  RH  WIND    PRES   REMARKS
#ENTERPRISE HS  N/A         14  11  88  CALM    30.36R
#IMNAHA SCHOOL  N/A         21  16  81  SE1     30.33R
#IMNAHA 10S     N/A         15  12  88  CALM    30.24R
#JOSEPH 3N      N/A         11   3  69  CALM    30.21S
#LOSTINE        N/A         11   8  87  CALM    30.26S
#LOSTINE 3SE    N/A         12   8  84  CALM    30.25S
#MT HOWARD 8000 N/A         -1  -5  83  CALM    29.78R
#WALLOWA LAKE   N/A         11   7  83  CALM    30.18R
#WALLOWA SCHOOL N/A         13   9  84  CALM    30.23S



$$



USA.gov is the U.S. government's official web portal to all federal, state and local government web resources and services.